TimeMDT,TemperatureF,Dew PointF,Humidity,Sea Level PressureIn,VisibilityMPH,Wind Direction,Wind SpeedMPH,Gust SpeedMPH,PrecipitationIn,Events,Conditions,WindDirDegrees,DateUTC
12:53 AM,46.0,12.9,26,29.85,10.0,WSW,6.9,-,N/A,,Clear,240,2013-10-18 06:53:00
1:53 AM,44.1,12.9,28,29.86,10.0,WSW,6.9,-,N/A,,Clear,250,2013-10-18 07:53:00
2:53 AM,44.1,15.1,31,29.86,10.0,West,3.5,-,N/A,,Clear,280,2013-10-18 08:53:00
3:53 AM,39.9,14.0,35,29.86,10.0,SW,4.6,-,N/A,,Clear,230,2013-10-18 09:53:00
4:53 AM,39.9,14.0,35,29.87,10.0,SW,4.6,-,N/A,,Clear,230,2013-10-18 10:53:00
5:53 AM,36.0,14.0,41,29.90,10.0,WSW,5.8,-,N/A,,Clear,250,2013-10-18 11:53:00
6:53 AM,37.0,15.1,41,29.92,10.0,West,3.5,-,N/A,,Clear,280,2013-10-18 12:53:00
7:53 AM,39.9,15.1,36,29.94,10.0,WSW,5.8,-,N/A,,Clear,250,2013-10-18 13:53:00
8:53 AM,52.0,17.1,25,29.95,10.0,West,8.1,-,N/A,,Clear,260,2013-10-18 14:53:00
9:53 AM,57.0,18.0,22,29.97,10.0,WSW,6.9,-,N/A,,Clear,240,2013-10-18 15:53:00
10:53 AM,63.0,18.0,18,29.95,10.0,West,9.2,-,N/A,,Clear,270,2013-10-18 16:53:00
11:53 AM,66.9,19.0,16,29.94,10.0,WSW,4.6,-,N/A,,Clear,240,2013-10-18 17:53:00
12:53 PM,70.0,18.0,14,29.91,10.0,Calm,Calm,-,N/A,,Clear,0,2013-10-18 18:53:00
1:53 PM,73.9,19.9,13,29.87,10.0,Calm,Calm,-,N/A,,Clear,0,2013-10-18 19:53:00
2:53 PM,75.0,19.9,13,29.84,10.0,Variable,3.5,-,N/A,,Clear,0,2013-10-18 20:53:00
3:53 PM,75.9,17.1,11,29.85,10.0,WSW,9.2,20.7,N/A,,Clear,250,2013-10-18 21:53:00
4:53 PM,75.0,14.0,10,29.85,10.0,WSW,11.5,20.7,N/A,,Clear,250,2013-10-18 22:53:00
5:53 PM,73.0,14.0,11,29.88,10.0,WSW,11.5,19.6,N/A,,Clear,240,2013-10-18 23:53:00
6:53 PM,66.9,14.0,13,29.92,10.0,SW,8.1,-,N/A,,Clear,230,2013-10-19 00:53:00
7:53 PM,57.9,15.1,19,29.96,10.0,SW,4.6,-,N/A,,Clear,220,2013-10-19 01:53:00
8:53 PM,57.0,15.1,19,29.95,10.0,SW,4.6,-,N/A,,Clear,220,2013-10-19 02:53:00
9:53 PM,53.1,15.1,22,29.96,10.0,Calm,Calm,-,N/A,,Clear,0,2013-10-19 03:53:00
10:53 PM,48.0,16.0,28,29.98,10.0,Calm,Calm,-,N/A,,Clear,0,2013-10-19 04:53:00
11:53 PM,45.0,15.1,30,29.98,10.0,ENE,6.9,-,N/A,,Clear,70,2013-10-19 05:53:00